[Iaude] MPEC K139: 2024 JT25 [a=2.46,e=0.55,i=2.4,H=21.1]

mpec at cfa.harvard.edu mpec at cfa.harvard.edu
Thu May 30 20:52:24 EDT 2024


M.P.E.C. 2024-K139                                 Issued 2024 May 31, 00:50 UT

     The Minor Planet Electronic Circulars contain information on unusual
         minor planets, routine data on comets and natural satellites,
         and occasional editorial announcements.  They are published
    on behalf of Division F of the International Astronomical Union by the
          Minor Planet Center, Smithsonian Astrophysical Observatory,
                          Cambridge, MA 02138, U.S.A.
			  
             Prepared using the Tamkin Foundation Computer Network

                              MPC at CFA.HARVARD.EDU
            URL https://www.minorplanetcenter.net/    ISSN 1523-6714

                                   2024 JT25                                    


Observations:
     K24J25T* C2024 05 02.44586916 01 03.105-23 53 47.00         21.26wXEK139F51
     K24J25T  C2024 05 02.45755716 01 02.725-23 53 49.56         21.43wXEK139F51
     K24J25T  C2024 05 02.46924516 01 02.363-23 53 52.14         21.27wXEK139F51
     K24J25T  C2024 05 04.41485116 00 07.647-24 00 30.38         22.56GVEK139F51
     K24J25T  C2024 05 04.42808816 00 07.164-24 00 32.33         21.46GVEK139F51
     K24J25T  C2024 05 04.44131516 00 06.698-24 00 35.69         22.11GVEK139F51
     K24J25T  C2024 05 06.48596515 58 57.942-24 07 23.69         22.54GVEK139F51
     K24J25T  C2024 05 06.49706915 58 57.476-24 07 26.04         21.89GVEK139F51
     K24J25T  C2024 05 06.50813315 58 57.017-24 07 27.94         22.12GVEK139F51
     K24J25T  C2024 05 06.51919815 58 56.536-24 07 30.10         21.85GVEK139F51
     K24J25T  C2024 05 30.37621215 34 01.235-25 07 46.68         20.37wXEK139F51
     K24J25T  C2024 05 30.38660815 34 00.294-25 07 47.79         20.34wXEK139F51
     K24J25T  C2024 05 30.39698615 33 59.354-25 07 48.76         20.47wXEK139F51
     K24J25T  C2024 05 30.40734415 33 58.416-25 07 49.75         20.45wXEK139F51
     K24J25T KB2024 05 30.97400915 33 11.89 -25 08 48.2          20.4 GXEK139I93
     K24J25T KB2024 05 30.98124815 33 11.28 -25 08 48.1          20.7 GXEK139I93
     K24J25T KB2024 05 30.98850815 33 10.55 -25 08 49.4          20.9 GXEK139I93

Observer details:
F51 Pan-STARRS 1, Haleakala.  Observers J. Herman, T. Lowe, P. Minguez, A.
    Schultz, I. Smith.  Measurers K. Chambers, T. de Boer, J. Fairlamb, H.
    Gao, M. Huber, C.-C. Lin, E. Magnier, Y. Ramanjooloo, R. Wainscoat, R.
    Weryk.  1.8-m Ritchey-Chretien + CCD.
I93 St Pardon de Conques.  Observer F. Losse.  0.40-m f/3.7 reflector + CMO.

Orbital elements:
2024 JT25                                                Earth MOID = 0.0984 AU
Epoch 2024 Mar. 31.0 TT = JDT 2460400.5                 Veres                   
M 323.60361              (2000.0)            P               Q                  
n   0.25602001     Peri.  299.49019     +0.72615908     +0.68742051             
a   2.4563303      Node    17.09319     -0.61570318     +0.65802074             
e   0.5504107      Incl.    2.35629     -0.30594540     +0.30734629             
P   3.85           H   21.12          G   0.15           U   7                  
Residuals in seconds of arc
240502 F51  0.1+  0.0     240506 F51  0.0   0.1+    240530 F51  0.0   0.0
240502 F51  0.1-  0.0     240506 F51  0.0   0.2-    240530 F51  0.0   0.0
240502 F51  0.0   0.1-    240506 F51  0.1+  0.1+    240530 I93  0.3+  0.4+
240504 F51  0.1-  0.3-    240506 F51  0.1-  0.0     240530 I93  0.8+  1.2+
240504 F51  0.1-  0.6+    240530 F51  0.0   0.0     240530 I93  0.3-  0.5+
240504 F51  0.1+  0.0     240530 F51  0.0   0.1-

Ephemeris:
2024 JT25                a,e,i = 2.46, 0.55, 2                   q = 1.1043
Date    TT    R. A. (2000) Decl.     Delta      r    Elong.  Phase     V
2024 05 01    16 01 37.4 -23 48 36   0.6848  1.6609   157.5    13.4    22.2
...
2024 05 16    15 51 21.7 -24 35 57   0.5449  1.5532   172.9     4.6    21.2
...
2024 05 24    15 42 22.9 -24 55 32   0.4863  1.4968   173.5     4.4    20.8
...
2024 05 30    15 34 31.9 -25 06 55   0.4493  1.4553   167.3     8.8    20.8
2024 05 31    15 33 09.9 -25 08 33   0.4437  1.4485   166.1     9.7    20.8
2024 06 01    15 31 47.2 -25 10 05   0.4382  1.4416   164.9    10.6    20.8
...
2024 06 07    15 23 28.4 -25 17 59   0.4086  1.4013   157.6    16.0    20.8
...
2024 06 15    15 13 10.1 -25 27 02   0.3764  1.3495   147.9    23.6    20.8
...
2024 06 30    15 01 08.1 -25 55 57   0.3318  1.2605   131.3    37.3    20.7

M. P. C. Staff               (C) Copyright 2024 MPC           M.P.E.C. 2024-K139





More information about the Iaude mailing list